Location: Chollas Creek
(32.7320°N, 117.0931°W)
Time: 12:23:47
(UTC+00:00)

Daily predictions for brighter satellites

Satellite Brightness Start Highest point End
(mag) Time Altitude Azimuth Time Altitude Azimuth Time Altitude Azimuth
COSMOS 2428 3.6 12:00:39 10° NW 12:05:23 27° WSW 12:10:07 10° SSW
CZ-4B R/B 4.5 12:02:43 10° NNE 12:07:43 49° E 12:12:33 10° S
Delta 2 Rocket 4.2 12:03:22 10° W 12:07:43 41° SSW 12:12:32 10° SE
CZ-4C R/B 4.2 12:04:09 10° SSE 12:08:23 61° ENE 12:12:43 10° N
Cosmos 2219 3.6 12:07:57 10° SW 12:13:25 48° WNW 12:18:52 10° N
Cosmos 1544 2.9 12:10:39 10° S 12:14:08 76° W 12:17:40 10° N
OAO 3 Rocket 3.5 12:10:15 10° W 12:15:12 73° N 12:20:04 10° ENE
